ITY239 LIRN-LIEO

Flight info

Callsign ITY239
Flight time N/A
Altitude 36000
Route EDOPA7G/24 EDOPA DCT TAGEL DCT POKAV/N0446F370 DCT ROXAN DCT ATNET
Aircraft A20N/M-SDE2E3FGHIRWXY/LB1

Departure

Time 2026-04-28 17:39
Airport Naples International Airport (LIRN)

Arrival

Time N/A
Airport Olbia Costa Smeralda Airport (LIEO)
Time Latitude Longitude Altitude Speed Heading
2026-04-28 17:24 40.88141 14.28615 297 ft 0 kts 330°
2026-04-28 17:31 40.88119 14.28632 298 ft 3 kts 330°
2026-04-28 17:32 40.88090 14.28656 295 ft 2 kts 348°
2026-04-28 17:32 40.88078 14.28656 297 ft 0 kts 40°
2026-04-28 17:32 40.88077 14.28655 297 ft 1 kts 46°
2026-04-28 17:32 40.88077 14.28656 297 ft 0 kts 46°
2026-04-28 17:35 40.88079 14.28658 296 ft 2 kts 47°
2026-04-28 17:35 40.88094 14.28686 292 ft 6 kts 54°
2026-04-28 17:35 40.88127 14.28746 291 ft 10 kts 53°
2026-04-28 17:35 40.88180 14.28839 286 ft 15 kts 53°
2026-04-28 17:36 40.88254 14.28967 281 ft 20 kts 53°
2026-04-28 17:36 40.88346 14.29127 274 ft 24 kts 51°
2026-04-28 17:36 40.88457 14.29318 267 ft 28 kts 53°
2026-04-28 17:36 40.88584 14.29539 258 ft 31 kts 52°
2026-04-28 17:37 40.88725 14.29783 248 ft 35 kts 52°
2026-04-28 17:37 40.88852 14.30004 239 ft 26 kts 52°
2026-04-28 17:37 40.88924 14.30130 237 ft 16 kts 52°
2026-04-28 17:37 40.88999 14.30169 234 ft 0 kts 330°
2026-04-28 17:38 40.89000 14.30168 233 ft 1 kts 330°
2026-04-28 17:38 40.89019 14.30154 232 ft 6 kts 330°
2026-04-28 17:38 40.89067 14.30110 232 ft 8 kts 311°
2026-04-28 17:39 40.89069 14.30071 234 ft 4 kts 262°
2026-04-28 17:39 40.89038 14.30002 237 ft 33 kts 238°
2026-04-28 17:39 40.88228 14.28212 1156 ft 146 kts 238°
2026-04-28 17:40 40.87672 14.27134 2416 ft 139 kts 234°
2026-04-28 17:40 40.87013 14.26040 3311 ft 167 kts 224°
2026-04-28 17:40 40.85994 14.25190 3991 ft 184 kts 196°
2026-04-28 17:40 40.84698 14.25159 4878 ft 190 kts 172°
2026-04-28 17:41 40.83420 14.25468 5559 ft 192 kts 168°
2026-04-28 17:41 40.82081 14.25841 5921 ft 194 kts 168°
2026-04-28 17:41 40.80752 14.26202 5994 ft 196 kts 169°
2026-04-28 17:41 40.79411 14.26551 5994 ft 197 kts 169°
2026-04-28 17:42 40.78047 14.26896 5999 ft 198 kts 169°
2026-04-28 17:42 40.76685 14.27235 6279 ft 203 kts 169°
2026-04-28 17:42 40.75295 14.27577 7157 ft 202 kts 169°
2026-04-28 17:42 40.73926 14.27913 8157 ft 198 kts 170°
2026-04-28 17:43 40.72544 14.28245 9009 ft 208 kts 171°
2026-04-28 17:43 40.71092 14.28214 10056 ft 210 kts 196°
2026-04-28 17:43 40.69772 14.27293 10690 ft 233 kts 216°
2026-04-28 17:43 40.68436 14.25826 11067 ft 266 kts 221°
2026-04-28 17:44 40.66976 14.24095 11431 ft 298 kts 222°
2026-04-28 17:44 40.65355 14.22187 11927 ft 324 kts 222°
2026-04-28 17:44 40.63631 14.20187 12821 ft 334 kts 222°
2026-04-28 17:44 40.61866 14.18158 13859 ft 340 kts 222°
2026-04-28 17:45 40.60060 14.16093 14794 ft 346 kts 221°
2026-04-28 17:45 40.58222 14.13999 15747 ft 351 kts 221°
2026-04-28 17:45 40.56365 14.11887 16518 ft 354 kts 221°
2026-04-28 17:45 40.54503 14.09772 16943 ft 358 kts 221°
2026-04-28 17:46 40.52613 14.07627 17057 ft 360 kts 221°
2026-04-28 17:46 40.50844 14.05293 17050 ft 360 kts 232°
2026-04-28 17:46 40.49575 14.02443 17058 ft 360 kts 246°
2026-04-28 17:46 40.48654 13.99383 17054 ft 361 kts 250°
2026-04-28 17:47 40.47803 13.96317 17052 ft 361 kts 250°
2026-04-28 17:47 40.46944 13.93212 17058 ft 361 kts 250°